This is the latest recevied weather packets stored in our database for station/object KB1WCR. If no packets are shown the sender has not sent any weather packets the latest 10 day(s).
| Time | Temp. | Humidity | Pressure | Rain* | Wind** | Luminosity | Snow |
|---|---|---|---|---|---|---|---|
| 1777906030 | 16.11° C | 53% | 1006.6 hPa | 0 mm | - | 702 W/m² | - |
| 1777905726 | 15.56° C | 52% | 1006.8 hPa | 0 mm | - | 646 W/m² | - |
| 1777905423 | 15.56° C | 52% | 1006.7 hPa | 0 mm | - | 654 W/m² | - |
| 1777905121 | 15.56° C | 53% | 1006.9 hPa | 0 mm | - | 672 W/m² | - |
| 1777904817 | 15.56° C | 55% | 1006.9 hPa | 0 mm | - | 666 W/m² | - |
| 1777904515 | 15.56° C | 57% | 1006.8 hPa | 0 mm | - | 653 W/m² | - |
| 1777904211 | 15° C | 56% | 1006.9 hPa | 0 mm | - | 574 W/m² | - |
| 1777903908 | 15° C | 58% | 1007.1 hPa | 0 mm | - | 523 W/m² | - |
| 1777903605 | 14.44° C | 61% | 1007.3 hPa | 0 mm | - | 591 W/m² | - |
| 1777903300 | 13.89° C | 62% | 1007.3 hPa | 0 mm | - | 431 W/m² | - |
| 1777902998 | 13.89° C | 63% | 1007.5 hPa | 0 mm | - | 459 W/m² | - |
| 1777902694 | 13.89° C | 61% | 1007.5 hPa | 0 mm | - | 573 W/m² | - |
| 1777902392 | 13.33° C | 65% | 1007.7 hPa | 0 mm | - | 545 W/m² | - |
| 1777902088 | 12.22° C | 67% | 1007.8 hPa | 0 mm | - | 613 W/m² | - |
| 1777901787 | 11.67° C | 69% | 1007.8 hPa | 0 mm | - | 284 W/m² | - |
| 1777901483 | 11.67° C | 69% | 1007.9 hPa | 0 mm | - | 237 W/m² | - |
| 1777901181 | 11.67° C | 70% | 1008 hPa | 0 mm | - | 212 W/m² | - |
| 1777900878 | 11.67° C | 70% | 1008.1 hPa | 0 mm | - | 213 W/m² | - |
| 1777900576 | 11.11° C | 69% | 1008 hPa | 0 mm | - | 242 W/m² | - |
| 1777900272 | 11.11° C | 70% | 1008 hPa | 0 mm | - | 206 W/m² | - |
| 1777899969 | 10.56° C | 71% | 1008 hPa | 0 mm | - | 187 W/m² | - |
| 1777899666 | 10.56° C | 70% | 1008.3 hPa | 0 mm | - | 249 W/m² | - |
| 1777899364 | 10.56° C | 70% | 1008.4 hPa | 0 mm | - | 259 W/m² | - |
| 1777899061 | 11.11° C | 71% | 1008.3 hPa | 0 mm | - | 271 W/m² | - |
| 1777898758 | 10.56° C | 70% | 1008.4 hPa | 0 mm | - | 351 W/m² | - |
* Rain latest hour (hover to see other rain measurements)
** Current wind speed in m/s (hover to see current wind gust speed)